KB1WCR Weather Reports


time (UTC)temp
F
wind
direction
speed
knots
gust
knots
rain 1hr
in
rain 24hr
in
rain mn
in
humidity
%
barometer
mb
20260502190014 48 273 0.0 0.0 0.07 0.10 0.10 96 1011.4
20260502185510 48 314 1.7 2.6 0.07 0.10 0.10 96 1011.6
20260502185007 48 14 1.7 1.7 0.00 0.09 0.09 95 1011.7
20260502184502 48 3 0.9 0.9 0.00 0.09 0.09 94 1011.9
20260502183959 49 312 0.0 0.0 0.00 0.09 0.09 94 1011.7
20260502183455 48 325 0.0 0.9 0.00 0.09 0.09 93 1011.7
20260502182950 49 32 1.7 2.6 0.00 0.09 0.09 92 1011.7
20260502182446 49 307 0.0 0.0 0.00 0.09 0.09 91 1011.8
20260502181942 49 290 0.9 0.9 0.00 0.09 0.09 91 1011.7
20260502181441 49 250 0.9 0.9 0.00 0.09 0.09 91 1011.9
20260502180939 49 328 0.9 0.9 0.00 0.09 0.09 92 1011.9
20260502180436 50 35 0.9 0.9 0.00 0.09 0.09 93 1011.9
20260502170349 47 351 0.0 0.9 0.00 0.09 0.09 97 1011.9
20260502164336 46 327 0.0 0.9 0.00 0.09 0.09 96 1012.1
20260502163832 46 9 2.6 2.6 0.00 0.09 0.09 96 1012.0
20260502163328 46 29 0.9 0.9 0.00 0.09 0.09 96 1012.1
20260502162826 46 312 0.0 0.0 0.00 0.09 0.09 96 1012.0
20260502162322 46 24 1.7 1.7 0.00 0.09 0.09 96 1012.1
20260502161820 46 27 1.7 1.7 0.00 0.09 0.09 96 1011.9
20260502161316 45 47 3.5 3.5 0.00 0.09 0.09 96 1012.0
20260502160814 46 6 0.9 1.7 0.00 0.09 0.09 96 1012.2
20260502160312 45 23 1.7 1.7 0.00 0.09 0.09 96 1012.0
20260502152235 46 83 3.5 5.2 0.00 0.09 0.09 95 1012.1
20260502151733 45 135 1.7 2.6 0.00 0.09 0.09 96 1012.4
20260502151230 46 142 1.7 1.7 0.00 0.09 0.09 94 1012.2
20260502150727 46 2 1.7 3.5 0.00 0.09 0.09 95 1012.1
20260502150218 45 58 1.7 2.6 0.00 0.09 0.09 95 1012.3
20260502130607 43 4 1.7 1.7 0.12 0.06 0.06 96 1013.3
20260502130105 43 18 0.9 0.9 0.05 0.05 0.05 95 1013.3
20260502123550 43 74 2.6 3.5 0.00 0.04 0.04 94 1013.0
20260502123046 43 319 1.7 1.7 0.00 0.04 0.04 94 1012.9
20260502122543 42 13 1.7 1.7 0.00 0.04 0.04 95 1013.1
20260502122040 42 21 1.7 1.7 0.07 0.04 0.04 95 1013.0
20260502121538 42 73 1.7 2.6 0.07 0.04 0.04 95 1013.1
20260502121035 42 25 1.7 1.7 0.12 0.04 0.04 96 1013.2
20260502120531 42 16 4.3 7.0 0.05 0.03 0.03 98 1013.3
20260502115526 42 298 0.0 0.0 0.14 0.02 0.02 98 1013.8
20260502115022 42 303 0.0 0.0 0.07 0.01 0.01 98 1013.6
20260502114519 42 283 0.0 0.0 0.00 0.00 0.00 97 1013.5
20260502114015 42 273 0.0 0.0 0.00 0.00 0.00 97 1013.7
20260502113513 42 334 0.0 0.0 0.00 0.00 0.00 97 1013.6
20260502113012 42 212 0.9 0.9 0.00 0.00 0.00 97 1013.7
20260502112509 42 347 0.9 1.7 0.00 0.00 0.00 96 1013.3
20260502112006 42 278 1.7 1.7 0.00 0.00 0.00 96 1013.4
20260502111504 41 250 0.0 0.9 0.00 0.00 0.00 97 1013.4
20260502111001 41 267 0.9 0.9 0.00 0.00 0.00 96 1013.4
20260502110458 41 18 0.9 1.7 0.00 0.00 0.00 97 1013.1
20260502105955 41 0 0.9 1.7 0.00 0.00 0.00 98 1013.3
20260502105453 41 279 0.0 0.9 0.00 0.00 0.00 98 1013.5
20260502104950 40 286 0.9 0.9 0.00 0.00 0.00 97 1013.2
20260502104447 40 327 0.0 0.0 0.00 0.00 0.00 97 1013.3
20260502103945 40 288 0.0 0.0 0.00 0.00 0.00 97 1013.2
20260502103442 40 251 0.0 0.9 0.00 0.00 0.00 97 1013.0
20260502102939 39 52 1.7 1.7 0.00 0.00 0.00 96 1012.8
20260502102436 39 314 0.0 0.0 0.00 0.00 0.00 96 1013.0
20260502101933 39 285 0.0 0.9 0.00 0.00 0.00 95 1012.7
20260502101431 39 285 0.0 0.0 0.00 0.00 0.00 95 1012.8
20260502100929 39 313 0.0 0.0 0.00 0.00 0.00 95 1012.6
20260502100428 39 235 0.0 0.9 0.00 0.00 0.00 95 1012.5
20260502091402 36 316 0.0 0.0 0.00 0.00 0.00 96 1012.3
20260502090859 36 308 0.0 0.0 0.00 0.00 0.00 96 1012.2
20260502090356 36 327 0.0 0.0 0.00 0.00 0.00 96 1012.2
20260502071251 36 300 0.0 0.0 0.00 0.00 0.00 95 1012.8
20260502070749 36 300 0.0 0.0 0.00 0.00 0.00 95 1012.7
20260502070247 36 300 0.0 0.0 0.00 0.00 0.00 95 1012.5
20260502065745 36 302 0.0 0.0 0.00 0.00 0.00 95 1012.6
20260502065243 35 303 0.0 0.0 0.00 0.00 0.00 95 1012.4
20260502064741 35 305 0.0 0.0 0.00 0.00 0.00 95 1012.4
20260502064238 35 288 0.0 0.0 0.00 0.00 0.00 95 1012.4
20260502063735 35 292 0.0 0.0 0.00 0.00 0.00 95 1012.3
20260502063233 34 299 0.0 0.0 0.00 0.00 0.00 95 1012.3
20260502062730 34 300 0.0 0.0 0.00 0.00 0.00 95 1012.2
20260502062228 34 306 0.0 0.0 0.00 0.00 0.00 96 1012.1
20260502061726 34 303 0.0 0.0 0.00 0.00 0.00 96 1012.2
20260502061224 33 288 0.0 0.0 0.00 0.00 0.00 96 1012.1
20260502060719 33 289 0.0 0.0 0.00 0.00 0.00 96 1012.1
20260502060215 33 300 0.0 0.0 0.00 0.00 0.00 96 1012.0
20260502055712 33 311 0.0 0.0 0.00 0.00 0.00 95 1012.0
20260502055210 33 302 0.0 0.0 0.00 0.00 0.00 96 1012.3
20260502054704 33 311 0.0 0.0 0.00 0.00 0.00 96 1012.1
20260502054201 32 306 0.0 0.0 0.00 0.00 0.00 96 1012.1
20260502053658 32 301 0.0 0.0 0.00 0.00 0.00 96 1012.2
20260502053155 32 291 0.0 0.0 0.00 0.00 0.00 95 1012.3
20260502052653 32 300 0.0 0.0 0.00 0.00 0.00 95 1012.2
20260502052151 32 308 0.0 0.0 0.00 0.00 0.00 95 1012.0
20260502051649 32 314 0.0 0.0 0.00 0.00 0.00 94 1011.9
20260502051147 32 299 0.0 0.0 0.00 0.00 0.00 94 1012.2
20260502050643 32 299 0.0 0.0 0.00 0.00 0.00 94 1012.1
20260502050140 32 301 0.0 0.0 0.00 0.00 0.00 93 1011.9
20260502045636 33 292 0.0 0.0 0.00 0.00 0.00 93 1012.0
20260502045134 33 296 0.0 0.0 0.00 0.00 0.00 93 1011.9
20260502044630 33 317 0.0 0.0 0.00 0.00 0.00 93 1012.1
20260502044126 33 303 0.0 0.0 0.00 0.00 0.00 93 1012.1
20260502043624 33 303 0.0 0.0 0.00 0.00 0.00 93 1011.9
20260502043121 33 303 0.0 0.0 0.00 0.00 0.00 92 1012.1
20260502042615 33 303 0.0 0.0 0.00 0.00 0.00 92 1012.0
20260502042113 33 305 0.0 0.0 0.00 0.00 0.00 92 1012.1
20260502041610 33 299 0.0 0.0 0.00 0.00 0.00 92 1011.9
20260502041107 34 302 0.0 0.0 0.00 0.00 0.00 91 1011.8
20260502040604 34 309 0.0 0.0 0.00 0.00 0.00 90 1011.9
20260502035556 35 302 0.0 0.0 0.00 0.00 0.00 90 1011.8
20260502035054 35 302 0.0 0.0 0.00 0.00 0.00 89 1011.8
20260502034552 35 306 0.0 0.0 0.00 0.00 0.00 89 1011.8
20260502034050 35 303 0.0 0.0 0.00 0.00 0.00 89 1011.9
20260502033548 35 306 0.0 0.0 0.00 0.00 0.00 89 1011.7
20260502033045 35 300 0.0 0.0 0.00 0.00 0.00 89 1011.9
20260502032541 35 296 0.0 0.0 0.00 0.00 0.00 89 1011.8
20260502032038 36 296 0.0 0.0 0.00 0.00 0.00 88 1011.7
20260502031536 36 296 0.0 0.0 0.00 0.00 0.00 87 1011.8
20260502031033 36 309 0.0 0.0 0.00 0.00 0.00 86 1011.7
20260502030532 36 297 0.0 0.0 0.00 0.00 0.00 86 1011.6
20260502030030 36 309 0.0 0.0 0.00 0.00 0.00 86 1011.8
20260502025527 37 309 0.0 0.0 0.00 0.00 0.00 85 1011.7
20260502025025 37 313 0.0 0.0 0.00 0.00 0.00 84 1011.6
20260502024521 37 313 0.0 0.0 0.00 0.00 0.00 84 1011.8
20260502024020 38 332 0.0 0.0 0.00 0.00 0.00 83 1011.7
20260502023517 38 308 0.0 0.0 0.00 0.00 0.00 83 1011.8
20260502023015 38 312 0.0 0.0 0.00 0.00 0.00 82 1011.8
20260502022511 38 309 0.0 0.0 0.00 0.00 0.00 81 1011.7
20260502022009 38 313 0.0 0.0 0.00 0.00 0.00 80 1011.7
20260502021506 39 313 0.0 0.0 0.00 0.00 0.00 79 1011.7
20260502021003 39 320 0.0 0.0 0.00 0.00 0.00 78 1011.9
20260502020500 39 309 0.0 0.0 0.00 0.00 0.00 79 1011.7
20260502015957 40 310 0.0 0.0 0.00 0.00 0.00 77 1011.7
20260502015455 40 310 0.0 0.0 0.00 0.00 0.00 76 1011.7
20260502014951 40 313 0.0 0.0 0.00 0.00 0.00 76 1011.6
20260502014448 40 312 0.0 0.0 0.00 0.00 0.00 75 1011.5
20260502013945 41 312 0.0 0.0 0.00 0.00 0.00 73 1011.6
20260502013440 41 314 0.0 0.0 0.00 0.00 0.00 73 1011.5
20260502012937 41 329 0.0 0.0 0.00 0.00 0.00 72 1011.5
20260502012435 42 321 0.0 0.0 0.00 0.00 0.00 74 1011.5
20260502011932 43 307 0.0 0.0 0.00 0.00 0.00 73 1011.4
20260502011428 43 309 0.0 0.0 0.00 0.00 0.00 71 1011.5
20260502010925 44 309 0.0 0.0 0.00 0.00 0.00 69 1011.3
20260502010421 45 282 0.0 0.0 0.00 0.00 0.00 69 1011.3
20260502005918 46 289 0.0 0.0 0.00 0.00 0.00 61 1011.1
20260502005416 47 301 0.0 0.0 0.00 0.00 0.00 57 1011.1
20260502004914 48 299 0.0 0.0 0.00 0.00 0.00 54 1010.9
20260502004409 48 315 0.0 0.0 0.00 0.00 0.00 53 1011.1
20260502003906 49 334 0.0 0.0 0.00 0.00 0.00 49 1011.0
20260502003403 49 309 0.0 0.0 0.00 0.00 0.00 49 1010.9
20260502002854 49 324 0.0 0.0 0.00 0.00 0.00 51 1010.9
20260502002352 49 302 0.0 0.0 0.00 0.00 0.00 49 1011.0
20260502001849 50 283 0.0 0.0 0.00 0.00 0.00 48 1010.8
20260502001346 50 287 0.9 0.9 0.00 0.00 0.00 47 1010.6
20260502000844 51 292 0.0 0.0 0.00 0.00 0.00 46 1010.5
20260502000342 52 268 0.0 0.0 0.00 0.00 0.00 45 1010.3
20260501235838 52 325 0.9 1.7 0.00 0.00 0.00 44 1010.3
20260501235334 52 303 0.9 0.9 0.00 0.00 0.00 42 1010.1
20260501234829 53 268 0.0 0.9 0.00 0.00 0.00 45 1010.0
20260501234326 53 274 0.0 0.0 0.00 0.00 0.00 43 1009.9
20260501233825 53 310 0.0 0.9 0.00 0.00 0.00 42 1009.7
20260501233322 54 330 0.9 1.7 0.00 0.00 0.00 41 1009.8
20260501232817 55 316 0.9 0.9 0.00 0.00 0.00 41 1009.9
20260501232315 55 320 0.0 0.9 0.00 0.00 0.00 39 1009.5
20260501231812 55 332 1.7 2.6 0.00 0.00 0.00 39 1009.7
20260501231310 56 266 1.7 1.7 0.00 0.00 0.00 38 1009.5
20260501230808 56 271 3.5 3.5 0.00 0.00 0.00 36 1009.4
20260501230307 56 27 1.7 2.6 0.00 0.00 0.00 37 1009.4
20260501225804 56 275 3.5 3.5 0.00 0.00 0.00 36 1009.3
20260501225305 57 246 0.9 1.7 0.00 0.00 0.00 37 1009.1
20260501224757 57 263 1.7 1.7 0.00 0.00 0.00 36 1009.3
20260501224255 57 157 3.5 5.2 0.00 0.00 0.00 34 1009.0
20260501223751 57 240 1.7 2.6 0.00 0.00 0.00 35 1009.1
20260501223247 58 332 2.6 5.2 0.00 0.00 0.00 36 1008.9
20260501222743 59 266 1.7 2.6 0.00 0.00 0.00 35 1008.9
20260501222241 59 270 1.7 2.6 0.00 0.00 0.00 36 1008.8
20260501221738 59 317 0.9 0.9 0.00 0.00 0.00 36 1008.6
20260501221235 59 275 6.1 7.0 0.00 0.00 0.00 34 1008.4
20260501220732 59 172 1.7 2.6 0.00 0.00 0.00 34 1008.5
20260501220229 59 314 1.7 1.7 0.00 0.00 0.00 35 1008.4
20260501215727 59 28 2.6 3.5 0.00 0.00 0.00 34 1008.5
20260501215222 60 220 4.3 6.1 0.00 0.00 0.00 34 1008.3
20260501214717 59 256 2.6 2.6 0.00 0.00 0.00 34 1008.2
20260501214213 60 256 1.7 3.5 0.00 0.00 0.00 34 1008.2
20260501213710 60 299 1.7 3.5 0.00 0.00 0.00 34 1008.1
20260501213206 60 53 0.9 3.5 0.00 0.00 0.00 33 1008.0
20260501212702 60 277 2.6 3.5 0.00 0.00 0.00 33 1008.0
20260501212159 60 89 3.5 5.2 0.00 0.00 0.00 34 1007.9
20260501211656 60 294 3.5 5.2 0.00 0.00 0.00 32 1007.9
20260501211153 60 17 1.7 2.6 0.00 0.00 0.00 32 1007.7
20260501210650 60 287 4.3 6.1 0.00 0.00 0.00 34 1007.8
20260501210147 61 93 1.7 1.7 0.00 0.00 0.00 34 1007.6
20260501205643 61 352 3.5 5.2 0.00 0.00 0.00 32 1007.6
20260501205141 60 230 0.9 1.7 0.00 0.00 0.00 36 1007.6
20260501204637 61 9 4.3 6.1 0.00 0.00 0.00 32 1007.8
20260501204133 61 269 2.6 2.6 0.00 0.00 0.00 36 1007.6
20260501203630 60 274 3.5 6.1 0.00 0.00 0.00 36 1007.6
20260501203127 61 280 2.6 3.5 0.00 0.00 0.00 38 1007.5
20260501202624 60 259 3.5 8.7 0.00 0.00 0.00 37 1007.4
20260501202121 61 268 3.5 5.2 0.00 0.00 0.00 37 1007.4
20260501201618 61 336 2.6 3.5 0.00 0.00 0.00 40 1007.6
20260501201114 60 301 6.1 8.7 0.00 0.00 0.00 39 1007.3
20260501200612 61 265 1.7 3.5 0.00 0.00 0.00 40 1007.4
20260501200109 60 253 4.3 6.1 0.00 0.00 0.00 41 1007.4
20260501195607 60 34 3.5 6.1 0.00 0.00 0.00 41 1007.3
20260501195102 61 271 7.0 11.3 0.00 0.00 0.00 43 1007.4
20260501194557 60 284 1.7 2.6 0.00 0.00 0.00 46 1007.3
20260501194053 60 292 0.9 0.9 0.00 0.00 0.00 45 1007.2
20260501193551 60 241 0.9 2.6 0.00 0.00 0.00 46 1007.3
20260501193049 59 265 3.5 3.5 0.00 0.00 0.00 48 1007.4
20260501192545 60 253 4.3 7.0 0.00 0.00 0.00 47 1007.5
20260501192043 60 339 1.7 2.6 0.00 0.00 0.00 49 1007.2
20260501191540 60 298 4.3 6.1 0.00 0.00 0.00 47 1007.3
20260501191037 61 317 1.7 1.7 0.00 0.00 0.00 46 1007.3
20260501190533 61 30 1.7 2.6 0.00 0.00 0.00 49 1007.1